Location: Olsztyn
(53.7767°N, 20.4765°E)
Time: 08:49:09
(UTC+01:00)

Tiros 1 - All Passes

Search period start: 28 January 2022 00:00
Search period end: 07 February 2022 00:00
Orbit: 629 x 664 km, 48.4° (Epoch: 27 January)

Date Brightness Start Highest point End Pass type
(mag) Time Alt. Az. Time Alt. Az. Time Alt. Az.
28 Jan - 01:01:27 10° W 01:05:57 41° S 01:10:26 10° ESE night (unlit)
28 Jan - 02:43:46 10° W 02:47:24 22° SSW 02:51:01 10° SSE night (unlit)
28 Jan - 20:24:54 10° SSE 20:27:03 13° SE 20:29:12 10° ESE night (unlit)
28 Jan - 22:03:59 10° SW 22:08:15 32° SSE 22:12:30 10° E night (unlit)
28 Jan - 23:45:19 10° WSW 23:49:54 45° S 23:54:27 10° ESE night (unlit)
29 Jan - 01:27:16 10° W 01:31:33 32° SSW 01:35:47 10° SE night (unlit)
29 Jan - 03:10:29 10° WSW 03:12:45 13° SW 03:14:59 10° S night (unlit)
29 Jan - 20:48:46 10° SSW 20:52:23 21° SSE 20:56:00 10° E night (unlit)
29 Jan - 22:29:21 10° WSW 22:33:50 40° S 22:38:20 10° E night (unlit)
30 Jan - 00:11:02 10° W 00:15:33 42° S 00:20:04 10° ESE night (unlit)
30 Jan - 01:53:18 10° W 01:57:03 23° SSW 02:00:46 10° SSE night (unlit)
30 Jan - 19:34:53 10° SSE 19:36:43 12° SE 19:38:33 10° ESE visible
30 Jan - 21:13:39 10° SW 21:17:52 31° SSE 21:22:05 10° E night (unlit)
30 Jan - 22:54:55 10° WSW 22:59:30 45° S 23:04:04 10° ESE night (unlit)
31 Jan - 00:36:51 10° W 00:41:11 34° SSW 00:45:28 10° SE night (unlit)
31 Jan - 02:19:54 10° WSW 02:22:24 14° SW 02:24:55 10° S night (unlit)
31 Jan - 19:58:31 10° SSW 20:02:01 20° SSE 20:05:32 10° ESE visible
31 Jan - 21:38:58 10° WSW 21:43:27 40° SSE 21:47:57 10° E night (unlit)
31 Jan - 23:20:38 10° WSW 23:25:10 42° S 23:29:42 10° ESE night (unlit)
01 Feb - 01:02:50 10° W 01:06:41 24° SSW 01:10:30 10° SSE night (unlit)
01 Feb - 18:44:57 10° SSE 18:46:23 11° SE 18:47:48 10° ESE visible
01 Feb - 20:23:19 10° SW 20:27:29 30° SSE 20:31:40 10° E visible
01 Feb - 22:04:31 10° WSW 22:09:06 45° S 22:13:41 10° ESE night (unlit)
01 Feb - 23:46:26 10° W 23:50:48 35° SSW 23:55:08 10° SE night (unlit)
02 Feb - 01:29:19 10° WSW 01:32:04 15° SW 01:34:47 10° S night (unlit)
02 Feb - 19:08:17 10° SSW 19:11:39 19° SSE 19:15:04 10° ESE visible
02 Feb - 20:48:36 10° SW 20:53:03 39° SSE 20:57:32 10° E visible
02 Feb - 22:30:13 10° WSW 22:34:47 43° S 22:39:19 10° ESE night (unlit)
03 Feb - 00:12:24 10° W 00:16:19 25° SSW 00:20:13 10° SSE night (unlit)
03 Feb - 17:55:16 10° SSE 17:56:02 10° SE 17:56:48 10° SE visible
03 Feb - 19:32:59 10° SW 19:37:06 29° SSE 19:41:14 10° E visible
03 Feb - 21:14:08 10° WSW 21:18:43 44° S 21:23:17 10° ESE visible
03 Feb - 22:56:01 10° W 23:00:24 36° SSW 23:04:47 10° SE night (unlit)
04 Feb - 00:38:46 10° WSW 00:41:43 16° SW 00:44:37 10° S night (unlit)
04 Feb - 18:18:03 10° S 18:21:18 18° SSE 18:24:34 10° ESE visible
04 Feb - 19:58:13 10° SW 20:02:41 38° SSE 20:07:07 10° E visible
04 Feb - 21:39:49 10° WSW 21:44:23 43° S 21:48:57 10° ESE night (unlit)
04 Feb - 23:21:57 10° W 23:25:57 26° SSW 23:29:55 10° SSE night (unlit)
05 Feb - 18:42:41 10° SSW 18:46:44 28° SSE 18:50:47 10° E visible
05 Feb - 20:23:45 10° WSW 20:28:18 44° S 20:32:53 10° ESE visible
05 Feb - 22:05:36 10° W 22:10:01 37° SSW 22:14:26 10° SE night (unlit)
05 Feb - 23:48:15 10° WSW 23:51:21 17° SW 23:54:26 10° S night (unlit)
06 Feb - 17:27:51 10° S 17:30:56 17° SE 17:34:03 10° ESE visible
06 Feb - 19:07:52 10° SW 19:12:16 37° SSE 19:16:42 10° E visible
06 Feb - 20:49:24 10° WSW 20:53:58 44° S 20:58:33 10° ESE visible
06 Feb - 22:31:30 10° W 22:35:34 27° SSW 22:39:37 10° SSE night (unlit)
